Regional Weather Roundup
Issued by NWS

Home | Current Version | Previous Version | Text Only | Print | Product List | Glossary On
Versions: 1 2 3 4 5 6 7 8 9 10 11 12 13 14 15 16 17 18 19 20 21 22 23 24 25 26 27 28 29 30 31 32 33 34 35 36 37 38 39 40 41 42 43 44 45 46 47 48 49 50
732
ASUS46 KSTO 271615
RWRCA

NORTHERN AND CENTRAL CA REGIONAL WEATHER ROUNDUP
NATIONAL WEATHER SERVICE SACRAMENTO CA
800 AM PST MON FEB 27 2017

NOTE: FAIR INDICATES FEW OR NO CLOUDS BELOW 12,000 FEET WITH NO
SIGNIFICANT WEATHER AND/OR OBSTRUCTIONS TO VISIBILITY.

CAZ001-003-271700-
NORTHWEST AREA

CITY           SKY/WX    TMP DP  RH WIND       PRES   REMARKS
CRESCENT CITY  LGT RAIN  40  37  89 E6        29.95R
UKIAH          CLOUDY    33  33 100 N3        29.97R
$$

CAZ006-505>513-271700-
BAY AREA

CITY           SKY/WX    TMP DP  RH WIND       PRES   REMARKS
SANTA ROSA     MOSUNNY   35  35 100 NW3       29.96R
SAN RAFAEL     N/A       37  MM  MM MISG
NAPA           SUNNY     40  38  93 CALM      29.96R
CONCORD        SUNNY     42  41  96 S5        29.96R
OAKLAND CITY   N/A      MM  MM  MM MISG
OAKLAND        MOSUNNY   46  45  96 CALM      29.96R
SAN FRAN CITY  N/A       44  MM  81 MISG
SAN FRAN ARPT  MOSUNNY   46  39  76 W5        29.96R
LIVERMORE      SUNNY     42  38  85 CALM      29.94R
HAYWARD        SUNNY     45  39  79 E3        29.96R
REDWOOD CITY   N/A       43  MM  94 MISG
MOFFETT ARPT   MOSUNNY   46  40  79 CALM      29.97R
SAN JOSE ARPT  MOSUNNY   47  44  90 CALM      29.96R
$$
CAZ034-037-514>518-271700-
CENTRAL COAST

CITY           SKY/WX    TMP DP  RH WIND       PRES   REMARKS
WATSONVILLE    MOSUNNY   45  44  97 NW3       29.96R
SALINAS        MOSUNNY   45  41  86 NE3       29.94S
MONTEREY       MOSUNNY   45  41  86 CALM      29.95R
SAN LUIS OBISP MOSUNNY   47  43  86 CALM      29.92R
SANTA MARIA    CLOUDY    48  47  96 E5        29.91R
$$
CAZ015-016-271700-
NORTHERN SACRAMENTO VALLEY

CITY           SKY/WX    TMP DP  RH WIND       PRES   REMARKS
REDDING        SUNNY     34  31  88 NE6       29.94R WCI  29
RED BLUFF      SUNNY     35  29  78 CALM      29.96R
OROVILLE       SUNNY     42  37  82 E5        29.96R
$$
CAZ016>018-271700-
SOUTHERN SACRAMENTO VALLEY

CITY           SKY/WX    TMP DP  RH WIND       PRES   REMARKS
AUBURN         MOSUNNY   39  36  87 SE7       29.91R WCI  34
BEALE AFB      SUNNY     43  40  89 SE7       29.93R
LINCOLN        FAIR      41  41 100 SE5       29.94R
MARYSVILLE     SUNNY     41  39  93 S5        29.95R
SAC INTL ARPT  MOSUNNY   43  37  79 W3        29.95R
MATHER AIRPORT SUNNY     41  41 100 CALM      29.95R
DOWNTOWN SAC   N/A       45  MM  MM MISG
SAC EXEC ARPT  SUNNY     43  42  97 CALM      29.95R
VACAVILLE      SUNNY     42  37  82 CALM      29.96R
TRAVIS AFB     SUNNY     42  37  83 W3        29.93R
$$
CAZ019>021-271700-
SAN JOAQUIN VALLEY

CITY           SKY/WX    TMP DP  RH WIND       PRES   REMARKS
STOCKTON       SUNNY     45  42  89 W3        29.95R
MODESTO        MOSUNNY   47  41  80 CALM      29.95R
MERCED         CLOUDY    47  40  76 N5        29.94R
LEMOORE        PTSUNNY   45  42  89 NW13      29.93R
FRESNO         CLOUDY    49  43  80 N3        29.93R
HANFORD        CLOUDY    45  44  97 CALM      29.93R FOG
PORTERVILLE    MOSUNNY   47  44  90 CALM      29.93R
BAKERSFIELD    CLOUDY    48  44  86 NW5       29.91R
$$
CAZ011-012-071-271700-
NORTHERN MOUNTAINS

CITY           SKY/WX    TMP DP  RH WIND       PRES   REMARKS
YREKA          CLOUDY    27  25  92 SW3       29.86R
MOUNT SHASTA   CLOUDY    22  19  89 CALM      29.82R
ALTURAS        FLURRIES  19  17  92 CALM      29.79R
$$
CAZ011-012-071-271700-
SIERRA NEVADA MTNS

CITY           SKY/WX    TMP DP  RH WIND       PRES   REMARKS
BLUE CANYON    CLOUDY    23  22  96 CALM      29.80R
TRUCKEE        MOSUNNY   21  12  68 W7        29.76R WCI  13
TAHOE VLY ARPT LGT SNOW  22  18  85 S3        29.74R FOG
MAMMOTH LAKES  FAIR      28  11  49 SW20G40   29.68R WCI  14
$$




USA.gov is the U.S. government's official web portal to all federal, state and local government web resources and services.